"Pseudo-MPEC" for A11aVId

Created 2024 Sep 7 14:22:03 UT using Find_Orb

Click here for an explanation of pseudo-MPECs

 
 Astrometry: 
     A11aVId* C2024 09 07.22482620 32 25.430-27 32 52.12   ~97D7 18.51oVNEOCPT08
     A11aVId  C2024 09 07.22528820 32 25.834-27 32 44.09   ~97D7 18.42oVNEOCPT08
     A11aVId  C2024 09 07.22575120 32 26.201-27 32 34.91   ~97D7 18.55oVNEOCPT08
     A11aVId  C2024 09 07.22621220 32 26.458-27 32 28.64   ~97D7 17.45oVNEOCPT08
     A11aVId  C2024 09 07.22667420 32 26.844-27 32 20.69   ~97D7 18.75oVNEOCPT08
     A11aVId* C2024 09 07.22669820 32 26.897-27 32 23.42   ~977q 18.56oVNEOCPT05
     A11aVId  C2024 09 07.22714920 32 27.252-27 32 17.59   ~977q 18.46oVNEOCPT05
     A11aVId  C2024 09 07.22760220 32 27.655-27 32 09.02   ~977q 18.64oVNEOCPT05
     A11aVId  C2024 09 07.22805420 32 27.912-27 32 01.68   ~977q 18.82oVNEOCPT05
     A11aVId  C2024 09 07.22850620 32 28.207-27 31 54.77   ~977q 18.73oVNEOCPT05

Station data:
(T05) ATLAS-HKO, Haleakala  (N20.707551 W156.257010)  US/Hawaii.  Observers
   L. Denneau, A. Heinze, H. Weiland, J. Tonry, H. Flewelling, A.
   Fitzsimmons, D. Young, B. Stalder. Measurers L. Denneau, A. Heinze, J.
   Tonry. 0.5-m f/2.0 Schmidt + CCD.
(T08) ATLAS-MLO, Mauna Loa  (N19.536150 W155.576050)  US/Hawaii.  Observers
   L. Denneau, A. Heinze, H. Weiland, J. Tonry, H. Flewelling, A.
   Fitzsimmons, D. Young, B. Stalder. Measurers L. Denneau, A. Heinze, J.
   Tonry. 0.5-m f/2.0 Schmidt + CCD.

Orbital elements:  A11aVId
   Perihelion 2024 Jun 15.47147 +/- 33.1 TT = 11:18:55 (JD 2460476.97147)
Epoch 2024 Sep  7.0 TT = JDT 2460560.5   Earth MOID: 0.0054      AutoNEOCP
M  78.36775406 +/- 33               (J2000 ecliptic)
n   0.93821545 +/- 0.181            Peri.  260.26229 +/- 42
a   1.03339810 +/- 0.133            Node   346.40138 +/- 0.32
e   0.1614909 +/- 0.0697            Incl.    4.61423 +/- 1.0
P   1.051/383.700d         H 25.10  G  0.15   U 11.6  SR
q 0.86651367 +/- 0.109    Q 1.20028253 +/- 0.271
From 10 observations 2024 Sept. 7 (5.3 min); mean residual 0".57
Residuals in arcseconds: 
240907 T08  .70-  .71-    240907 T08  .52+  .11+    240907 T05  .08-  .11+    
240907 T08  .28+  .33-    240907 T05  .66-  .83+    240907 T05  .46-  .46-    
240907 T08  .75+  1.2+    240907 T05  .24-  .81-    
240907 T08  .22-  .19-    240907 T05  .80+  .26+    

Ephemerides (geocentric):
Date (UTC) HH   RA             Dec           delta  r     elong  mag " sig PA
---- --------  ------------   ------------  ------ ------ -----  --- --------
2024 09 07 14  20 36 58.383   -25 50 17.24  .02670 1.0281 139.4 18.9  227 159
2024 09 07 15  20 37 30.037   -25 39 11.39  .02681 1.0282 139.5 18.9  266 157
2024 09 07 16  20 38 01.352   -25 28 10.40  .02692 1.0283 139.7 18.9  310 156
2024 09 07 17  20 38 32.333   -25 17 14.23  .02703 1.0284 139.8 18.9  358 154
2024 09 07 18  20 39 02.986   -25 06 22.86  .02713 1.0285 140.0 18.9  411 153
2024 09 07 19  20 39 33.315   -24 55 36.25  .02724 1.0286 140.1 18.9  468 153
2024 09 07 20  20 40 03.326   -24 44 54.37  .02735 1.0287 140.2 18.9  529 152
2024 09 07 21  20 40 33.023   -24 34 17.19  .02746 1.0289 140.4 18.9  594 151
2024 09 07 22  20 41 02.411   -24 23 44.69  .02757 1.0290 140.5 18.9  663 151
2024 09 07 23  20 41 31.495   -24 13 16.82  .02768 1.0291 140.6 18.9  736 151
2024 09 08 00  20 42 00.279   -24 02 53.57  .02780 1.0292 140.7 18.9  813 151
2024 09 08 01  20 42 28.769   -23 52 34.89  .02791 1.0293 140.9 18.9  895 150
2024 09 08 02  20 42 56.968   -23 42 20.76  .02802 1.0294 141.0 18.9  980 150
2024 09 08 03  20 43 24.881   -23 32 11.15  .02813 1.0295 141.1 18.9 1068 150
2024 09 08 04  20 43 52.512   -23 22 06.02  .02824 1.0297 141.2 18.9 1161 150
2024 09 08 05  20 44 19.866   -23 12 05.34  .02836 1.0298 141.3 18.9 1258 150
2024 09 08 06  20 44 46.946   -23 02 09.08  .02847 1.0299 141.5 18.9 1358 150
2024 09 08 07  20 45 13.756   -22 52 17.21  .02858 1.0300 141.6 19.0 1462 150
2024 09 08 08  20 45 40.301   -22 42 29.69  .02870 1.0301 141.7 19.0 1569 150
2024 09 08 09  20 46 06.585   -22 32 46.50  .02881 1.0302 141.8 19.0 1680 150
2024 09 08 10  20 46 32.610   -22 23 07.60  .02893 1.0303 141.9 19.0 1795 150
2024 09 08 11  20 46 58.382   -22 13 32.95  .02904 1.0304 142.0 19.0 1913 150
2024 09 08 12  20 47 23.903   -22 04 02.54  .02916 1.0306 142.1 19.0 2035 150
2024 09 08 13  20 47 49.178   -21 54 36.31  .02927 1.0307 142.2 19.0 2160 150
2024 09 08 14  20 48 14.210   -21 45 14.26  .02939 1.0308 142.3 19.0 2288 150
2024 09 08 15  20 48 39.002   -21 35 56.33  .02950 1.0309 142.4 19.0 2420 150
2024 09 08 16  20 49 03.557   -21 26 42.50  .02962 1.0310 142.5 19.0 2555 150
2024 09 08 17  20 49 27.880   -21 17 32.74  .02974 1.0311 142.7 19.0 2694 150
2024 09 08 18  20 49 51.974   -21 08 27.01  .02985 1.0312 142.8 19.0 2835 150
2024 09 08 19  20 50 15.841   -20 59 25.28  .02997 1.0314 142.8 19.0 2980 150
2024 09 08 20  20 50 39.485   -20 50 27.53  .03009 1.0315 142.9 19.0 3128 150
2024 09 08 21  20 51 02.909   -20 41 33.71  .03021 1.0316 143.0 19.0 3279 150
2024 09 08 22  20 51 26.117   -20 32 43.81  .03032 1.0317 143.1 19.0 3434 150
2024 09 08 23  20 51 49.110   -20 23 57.78  .03044 1.0318 143.2 19.0 3591 150
2024 09 09 00  20 52 11.893   -20 15 15.59  .03056 1.0319 143.3 19.1 3752 150
2024 09 09 01  20 52 34.467   -20 06 37.22  .03068 1.0320 143.4 19.1 3915 150
2024 09 09 02  20 52 56.837   -19 58 02.63  .03080 1.0322 143.5 19.1 4081 150
2024 09 09 03  20 53 19.004   -19 49 31.79  .03092 1.0323 143.6 19.1 4251 150
2024 09 09 04  20 53 40.972   -19 41 04.68  .03104 1.0324 143.7 19.1 4423 150
2024 09 09 05  20 54 02.743   -19 32 41.25  .03116 1.0325 143.8 19.1 4598 150
2024 09 09 06  20 54 24.320   -19 24 21.48  .03128 1.0326 143.8 19.1 4776 150
2024 09 09 07  20 54 45.705   -19 16 05.35  .03140 1.0327 143.9 19.1 4957 150
2024 09 09 08  20 55 06.902   -19 07 52.81  .03152 1.0328 144.0 19.1 5140 150
2024 09 09 09  20 55 27.912   -18 59 43.84  .03164 1.0330 144.1 19.1 5326 150
2024 09 09 10  20 55 48.739   -18 51 38.41  .03176 1.0331 144.2 19.1 5515 150
2024 09 09 11  20 56 09.384   -18 43 36.49  .03189 1.0332 144.2 19.1 5707 150
2024 09 09 12  20 56 29.850   -18 35 38.05  .03201 1.0333 144.3 19.1 5901 150
2024 09 09 13  20 56 50.140   -18 27 43.06  .03213 1.0334 144.4 19.1 6098 150